Time,TemperatureF,DewpointF,PressureIn,WindDirection,WindDirectionDegrees,WindSpeedMPH,WindSpeedGustMPH,Humidity,HourlyPrecipIn,Conditions,Clouds,dailyrainin,SolarRadiationWatts/m^2,SoftwareType,DateUTC
2013-11-15 00:02:00,54.4,41.0,29.86,SSW,210,0.0,1.0,61,0.00,,,0.00,0,weatherlink.com 1.10,2013-11-15 07:02:00,
2013-11-15 00:17:00,54.3,42.0,29.86,SSW,210,1.0,6.0,63,0.00,,,0.00,0,weatherlink.com 1.10,2013-11-15 07:17:00,
2013-11-15 00:32:00,54.0,42.0,29.85,SSW,210,0.0,7.0,65,0.00,,,0.00,0,weatherlink.com 1.10,2013-11-15 07:32:00,
2013-11-15 00:47:00,53.4,42.0,29.85,SSW,210,0.0,1.0,66,0.00,,,0.00,0,weatherlink.com 1.10,2013-11-15 07:47:00,
2013-11-15 01:02:00,52.9,42.0,29.85,SSW,210,0.0,0.0,66,0.00,,,0.00,0,weatherlink.com 1.10,2013-11-15 08:02:00,
2013-11-15 01:17:00,52.2,41.0,29.85,SSW,210,0.0,0.0,67,0.00,,,0.00,0,weatherlink.com 1.10,2013-11-15 08:17:00,
2013-11-15 01:32:00,51.7,41.0,29.85,SSW,210,0.0,0.0,68,0.00,,,0.00,0,weatherlink.com 1.10,2013-11-15 08:32:00,
2013-11-15 01:47:00,51.7,41.0,29.84,SSW,210,0.0,1.0,67,0.00,,,0.00,0,weatherlink.com 1.10,2013-11-15 08:47:00,
2013-11-15 02:02:00,51.6,41.0,29.84,SSW,210,0.0,0.0,68,0.00,,,0.00,0,weatherlink.com 1.10,2013-11-15 09:02:00,
2013-11-15 02:17:00,51.4,42.0,29.85,SSW,210,0.0,0.0,70,0.00,,,0.00,0,weatherlink.com 1.10,2013-11-15 09:17:00,
2013-11-15 02:32:00,51.1,42.0,29.85,SSW,211,0.0,0.0,71,0.00,,,0.00,0,weatherlink.com 1.10,2013-11-15 09:32:00,
2013-11-15 02:47:00,50.8,42.0,29.84,SSW,210,0.0,0.0,73,0.00,,,0.00,0,weatherlink.com 1.10,2013-11-15 09:47:00,
2013-11-15 03:02:00,50.8,43.0,29.85,SSW,210,0.0,0.0,74,0.00,,,0.00,0,weatherlink.com 1.10,2013-11-15 10:02:00,
2013-11-15 03:17:00,50.6,43.0,29.84,SSW,211,0.0,0.0,75,0.00,,,0.00,0,weatherlink.com 1.10,2013-11-15 10:17:00,
2013-11-15 03:32:00,50.1,43.0,29.84,SSW,210,0.0,0.0,76,0.00,,,0.00,0,weatherlink.com 1.10,2013-11-15 10:32:00,
2013-11-15 03:47:00,50.3,43.0,29.85,SSW,211,0.0,0.0,76,0.00,,,0.00,0,weatherlink.com 1.10,2013-11-15 10:47:00,
2013-11-15 04:02:00,51.5,45.0,29.84,SSW,210,0.0,4.0,77,0.00,,,0.00,0,weatherlink.com 1.10,2013-11-15 11:02:00,
2013-11-15 04:17:00,51.7,44.0,29.84,SSW,211,0.0,0.0,76,0.00,,,0.00,0,weatherlink.com 1.10,2013-11-15 11:17:00,
2013-11-15 04:32:00,51.7,44.0,29.84,SSW,211,0.0,1.0,76,0.00,,,0.00,0,weatherlink.com 1.10,2013-11-15 11:32:00,
2013-11-15 04:47:00,51.7,44.0,29.83,SSW,211,0.0,5.0,76,0.00,,,0.00,0,weatherlink.com 1.10,2013-11-15 11:47:00,
2013-11-15 05:02:00,51.3,44.0,29.83,SSW,210,0.0,0.0,76,0.00,,,0.00,0,weatherlink.com 1.10,2013-11-15 12:02:00,
2013-11-15 05:17:00,50.8,44.0,29.83,SSW,210,0.0,0.0,77,0.00,,,0.00,0,weatherlink.com 1.10,2013-11-15 12:17:00,
2013-11-15 05:32:00,50.4,44.0,29.83,SSW,210,0.0,2.0,78,0.00,,,0.00,0,weatherlink.com 1.10,2013-11-15 12:32:00,
2013-11-15 05:47:00,50.2,44.0,29.83,SSW,210,0.0,3.0,79,0.00,,,0.00,0,weatherlink.com 1.10,2013-11-15 12:47:00,
2013-11-15 06:02:00,50.3,44.0,29.83,SSW,210,0.0,3.0,79,0.00,,,0.00,0,weatherlink.com 1.10,2013-11-15 13:02:00,
2013-11-15 06:17:00,50.7,45.0,29.84,SSW,210,0.0,1.0,80,0.00,,,0.00,0,weatherlink.com 1.10,2013-11-15 13:17:00,
2013-11-15 06:32:00,50.8,45.0,29.84,SSW,210,0.0,1.0,80,0.00,,,0.00,0,weatherlink.com 1.10,2013-11-15 13:32:00,
2013-11-15 06:47:00,50.5,45.0,29.85,SSW,211,0.0,0.0,80,0.00,,,0.00,11,weatherlink.com 1.10,2013-11-15 13:47:00,
2013-11-15 07:02:00,50.8,45.0,29.86,SSW,211,0.0,0.0,80,0.00,,,0.00,18,weatherlink.com 1.10,2013-11-15 14:02:00,
2013-11-15 07:17:00,50.8,45.0,29.85,SSW,210,0.0,0.0,80,0.00,,,0.00,32,weatherlink.com 1.10,2013-11-15 14:17:00,
2013-11-15 07:32:00,51.5,46.0,29.86,SSW,210,2.0,2.0,80,0.00,,,0.00,77,weatherlink.com 1.10,2013-11-15 14:32:00,
2013-11-15 07:47:00,52.3,46.0,29.86,SSW,210,0.0,3.0,79,0.00,,,0.00,91,weatherlink.com 1.10,2013-11-15 14:47:00,
2013-11-15 08:02:00,52.7,46.0,29.86,SSW,211,0.0,1.0,79,0.00,,,0.00,114,weatherlink.com 1.10,2013-11-15 15:02:00,
2013-11-15 08:17:00,53.3,47.0,29.87,SSW,210,0.0,2.0,78,0.00,,,0.00,169,weatherlink.com 1.10,2013-11-15 15:17:00,
2013-11-15 08:33:00,55.0,47.0,29.87,SSW,210,0.0,3.0,75,0.00,,,0.00,130,weatherlink.com 1.10,2013-11-15 15:33:00,
2013-11-15 08:48:00,55.3,47.0,29.87,SSW,211,0.0,3.0,73,0.00,,,0.00,120,weatherlink.com 1.10,2013-11-15 15:48:00,
2013-11-15 09:03:00,55.7,47.0,29.87,SSW,210,0.0,5.0,72,0.00,,,0.00,218,weatherlink.com 1.10,2013-11-15 16:03:00,
2013-11-15 09:18:00,56.5,48.0,29.86,SSW,210,0.0,5.0,72,0.00,,,0.00,285,weatherlink.com 1.10,2013-11-15 16:18:00,
2013-11-15 09:33:00,57.3,47.0,29.86,SSW,210,0.0,6.0,69,0.00,,,0.00,183,weatherlink.com 1.10,2013-11-15 16:33:00,
2013-11-15 09:48:00,57.8,47.0,29.86,SSW,210,0.0,4.0,68,0.00,,,0.00,146,weatherlink.com 1.10,2013-11-15 16:48:00,
2013-11-15 10:03:00,57.7,48.0,29.85,SSW,210,2.0,6.0,70,0.00,,,0.00,218,weatherlink.com 1.10,2013-11-15 17:03:00,
2013-11-15 10:18:00,58.5,49.0,29.84,SSW,210,2.0,5.0,70,0.00,,,0.00,181,weatherlink.com 1.10,2013-11-15 17:18:00,
2013-11-15 10:33:00,59.5,48.0,29.84,SSW,210,3.0,5.0,67,0.00,,,0.00,230,weatherlink.com 1.10,2013-11-15 17:33:00,
2013-11-15 10:48:00,60.6,48.0,29.84,SSW,210,1.0,7.0,64,0.00,,,0.00,262,weatherlink.com 1.10,2013-11-15 17:48:00,
2013-11-15 11:03:00,61.8,48.0,29.82,SSW,210,1.0,3.0,62,0.00,,,0.00,301,weatherlink.com 1.10,2013-11-15 18:03:00,
2013-11-15 11:18:00,62.8,49.0,29.82,SSW,210,1.0,7.0,61,0.00,,,0.00,345,weatherlink.com 1.10,2013-11-15 18:18:00,
2013-11-15 11:33:00,62.7,49.0,29.81,SSW,210,4.0,7.0,61,0.00,,,0.00,294,weatherlink.com 1.10,2013-11-15 18:33:00,
2013-11-15 11:48:00,63.1,49.0,29.79,SSW,210,0.0,5.0,60,0.00,,,0.00,206,weatherlink.com 1.10,2013-11-15 18:48:00,
2013-11-15 12:03:00,64.3,49.0,29.78,SSW,210,2.0,5.0,58,0.00,,,0.00,659,weatherlink.com 1.10,2013-11-15 19:03:00,
2013-11-15 12:18:00,65.3,49.0,29.77,SSW,210,2.0,7.0,56,0.00,,,0.00,248,weatherlink.com 1.10,2013-11-15 19:18:00,
2013-11-15 12:33:00,66.3,49.0,29.76,SSW,210,0.0,3.0,55,0.00,,,0.00,399,weatherlink.com 1.10,2013-11-15 19:33:00,
2013-11-15 12:48:00,67.6,50.0,29.74,SSW,210,1.0,7.0,53,0.00,,,0.00,510,weatherlink.com 1.10,2013-11-15 19:48:00,
2013-11-15 13:03:00,69.5,49.0,29.73,SSW,210,1.0,4.0,49,0.00,,,0.00,733,weatherlink.com 1.10,2013-11-15 20:03:00,
2013-11-15 13:18:00,70.4,48.0,29.73,SW,225,9.0,17.0,45,0.00,,,0.00,341,weatherlink.com 1.10,2013-11-15 20:18:00,
2013-11-15 13:33:00,69.9,48.0,29.71,SSW,194,6.0,11.0,46,0.00,,,0.00,308,weatherlink.com 1.10,2013-11-15 20:33:00,
2013-11-15 13:49:00,70.0,47.0,29.70,SW,218,7.0,14.0,44,0.00,,,0.00,306,weatherlink.com 1.10,2013-11-15 20:49:00,
2013-11-15 14:04:00,69.7,47.0,29.70,SW,230,5.0,20.0,44,0.00,,,0.00,185,weatherlink.com 1.10,2013-11-15 21:04:00,
2013-11-15 14:19:00,69.6,48.0,29.70,SW,227,8.0,11.0,46,0.00,,,0.00,149,weatherlink.com 1.10,2013-11-15 21:19:00,
2013-11-15 14:34:00,69.4,47.0,29.69,SSW,213,6.0,11.0,45,0.00,,,0.00,162,weatherlink.com 1.10,2013-11-15 21:34:00,
2013-11-15 14:49:00,69.5,48.0,29.68,SW,222,3.0,10.0,46,0.00,,,0.00,195,weatherlink.com 1.10,2013-11-15 21:49:00,
2013-11-15 15:04:00,67.7,49.0,29.68,SSW,198,7.0,15.0,51,0.00,,,0.00,172,weatherlink.com 1.10,2013-11-15 22:04:00,
2013-11-15 15:19:00,68.2,48.0,29.67,SW,232,5.0,10.0,48,0.00,,,0.00,135,weatherlink.com 1.10,2013-11-15 22:19:00,
2013-11-15 15:34:00,68.7,48.0,29.67,SW,229,4.0,9.0,47,0.00,,,0.00,90,weatherlink.com 1.10,2013-11-15 22:34:00,
2013-11-15 15:49:00,68.8,48.0,29.67,SW,224,2.0,10.0,47,0.00,,,0.00,83,weatherlink.com 1.10,2013-11-15 22:49:00,
2013-11-15 16:04:00,68.8,46.0,29.66,SSW,207,7.0,14.0,44,0.00,,,0.00,65,weatherlink.com 1.10,2013-11-15 23:04:00,
2013-11-15 16:19:00,68.5,46.0,29.66,SW,225,2.0,11.0,45,0.00,,,0.00,46,weatherlink.com 1.10,2013-11-15 23:19:00,
2013-11-15 16:34:00,68.3,47.0,29.66,SW,225,6.0,8.0,46,0.00,,,0.00,26,weatherlink.com 1.10,2013-11-15 23:34:00,
2013-11-15 16:49:00,67.9,46.0,29.66,SW,225,2.0,5.0,46,0.00,,,0.00,11,weatherlink.com 1.10,2013-11-15 23:49:00,
2013-11-15 17:04:00,67.7,46.0,29.66,SSW,209,4.0,8.0,46,0.00,,,0.00,0,weatherlink.com 1.10,2013-11-16 00:04:00,
2013-11-15 17:19:00,65.6,46.0,29.66,SSW,198,7.0,18.0,50,0.00,,,0.00,0,weatherlink.com 1.10,2013-11-16 00:19:00,
2013-11-15 17:34:00,64.9,47.0,29.67,SSW,198,4.0,17.0,52,0.00,,,0.00,0,weatherlink.com 1.10,2013-11-16 00:34:00,
2013-11-15 17:49:00,64.7,46.0,29.68,SSW,203,8.0,17.0,51,0.00,,,0.00,0,weatherlink.com 1.10,2013-11-16 00:49:00,
2013-11-15 18:04:00,64.5,45.0,29.68,SSW,207,7.0,21.0,50,0.00,,,0.00,0,weatherlink.com 1.10,2013-11-16 01:04:00,
2013-11-15 18:19:00,64.4,46.0,29.68,SSW,196,6.0,15.0,51,0.00,,,0.00,0,weatherlink.com 1.10,2013-11-16 01:19:00,
2013-11-15 18:34:00,64.3,46.0,29.69,SW,224,7.0,14.0,51,0.00,,,0.00,0,weatherlink.com 1.10,2013-11-16 01:34:00,
2013-11-15 18:49:00,64.1,45.0,29.70,SSW,205,7.0,17.0,50,0.00,,,0.00,0,weatherlink.com 1.10,2013-11-16 01:49:00,
2013-11-15 19:04:00,64.2,44.0,29.70,SSW,211,8.0,16.0,49,0.00,,,0.00,0,weatherlink.com 1.10,2013-11-16 02:04:00,
2013-11-15 19:19:00,63.5,45.0,29.70,SSW,210,8.0,17.0,51,0.00,,,0.00,0,weatherlink.com 1.10,2013-11-16 02:19:00,
2013-11-15 19:34:00,63.2,45.0,29.71,SW,225,7.0,16.0,51,0.00,,,0.00,0,weatherlink.com 1.10,2013-11-16 02:34:00,
2013-11-15 19:49:00,62.9,45.0,29.71,SW,221,6.0,14.0,52,0.00,,,0.00,0,weatherlink.com 1.10,2013-11-16 02:49:00,
2013-11-15 20:04:00,62.5,45.0,29.72,SW,226,4.0,12.0,53,0.00,,,0.00,0,weatherlink.com 1.10,2013-11-16 03:04:00,
2013-11-15 20:19:00,62.3,45.0,29.70,SSW,205,5.0,8.0,54,0.00,,,0.00,0,weatherlink.com 1.10,2013-11-16 03:19:00,
2013-11-15 20:34:00,61.7,46.0,29.72,SW,219,4.0,13.0,57,0.00,,,0.00,0,weatherlink.com 1.10,2013-11-16 03:34:00,
2013-11-15 20:49:00,61.4,47.0,29.72,South,191,8.0,14.0,59,0.00,,,0.00,0,weatherlink.com 1.10,2013-11-16 03:49:00,
2013-11-15 21:04:00,61.2,47.0,29.72,SSW,195,7.0,9.0,60,0.00,,,0.00,0,weatherlink.com 1.10,2013-11-16 04:04:00,
2013-11-15 21:19:00,61.1,47.0,29.72,SSW,195,4.0,10.0,61,0.00,,,0.00,0,weatherlink.com 1.10,2013-11-16 04:19:00,
2013-11-15 21:34:00,61.1,47.0,29.73,SSW,194,6.0,10.0,61,0.00,,,0.00,0,weatherlink.com 1.10,2013-11-16 04:34:00,
2013-11-15 21:49:00,60.7,49.0,29.73,South,191,6.0,16.0,65,0.00,,,0.00,0,weatherlink.com 1.10,2013-11-16 04:49:00,
2013-11-15 22:04:00,60.2,49.0,29.73,SSW,207,6.0,18.0,66,0.00,,,0.00,0,weatherlink.com 1.10,2013-11-16 05:04:00,
2013-11-15 22:19:00,59.2,49.0,29.73,SW,226,3.0,14.0,69,0.00,,,0.00,0,weatherlink.com 1.10,2013-11-16 05:19:00,
2013-11-15 22:34:00,59.0,50.0,29.70,SSW,200,0.0,11.0,71,0.00,,,0.00,0,weatherlink.com 1.10,2013-11-16 05:34:00,
2013-11-15 22:49:00,59.0,49.0,29.70,SSW,200,0.0,8.0,70,0.00,,,0.00,0,weatherlink.com 1.10,2013-11-16 05:49:00,
2013-11-15 23:04:00,58.9,49.0,29.70,SSW,200,0.0,7.0,70,0.00,,,0.00,0,weatherlink.com 1.10,2013-11-16 06:04:00,
2013-11-15 23:19:00,58.3,49.0,29.70,SSW,200,0.0,7.0,72,0.00,,,0.00,0,weatherlink.com 1.10,2013-11-16 06:19:00,
2013-11-15 23:34:00,58.0,49.0,29.69,SSW,200,0.0,7.0,73,0.00,,,0.00,0,weatherlink.com 1.10,2013-11-16 06:34:00,
2013-11-15 23:49:00,58.1,49.0,29.69,SSW,200,0.0,1.0,73,0.00,,,0.00,0,weatherlink.com 1.10,2013-11-16 06:49:00,